Regional Weather Roundup
Issued by NWS Bismarck, ND

Current Version |  Previous Version |  Text Only |  Print | Product List |  Glossary On
Versions: 1 2 3 4 5 6 7 8 9 10 11 12 13 14 15 16 17 18 19 20 21 22 23 24 25 26 27 28 29 30 31 32 33 34 35 36 37 38 39 40 41 42 43 44 45 46 47 48 49 50
155
ASUS43 KBIS 261410
RWRBIS

NWR BROADCAST TEXT
NATIONAL WEATHER SERVICE BISMARCK ND
900 AM CDT SUN MAY 26 2024

NOTE: "FAIR" INDICATES FEW OR NO CLOUDS BELOW 12,000 FEET WITH NO
SIGNIFICANT WEATHER AND/OR OBSTRUCTIONS TO VISIBILITY.


CITY           SKY/WX    TMP DP  RH WIND       PRES   REMARKS
WILLISTON      LGT RAIN  51  49  92 S7        29.70S
MINOT          PTSUNNY   52  43  71 SE6       29.72R
MINOT AFB      PTSUNNY   50  41  70 CALM      29.70R
BISMARCK       LGT RAIN  52  49  89 CALM      29.74S
DICKINSON      CLOUDY    51  50  96 SW5       29.72R
GARRISON         N/A     50  47  89 CALM      29.74R
HETTINGER ARPT CLOUDY    57  52  83 CALM      29.75S
JAMESTOWN      MOSUNNY   58  49  72 VRB3      29.73R
CARRINGTON     SUNNY     57  50  77 S6        29.73F
HAZEN          LGT RAIN  52  52 100 CALM      29.76R
MANDAN         CLOUDY    50  50 100 SE3       29.74S
OAKES          SUNNY     59  50  72 E12       29.73R HAZE
STANLEY        CLOUDY    50  50 100 CALM      29.72S
TIOGA          CLOUDY    54  54 100 SW6       29.72S
WATFORD CITY   CLOUDY    55  55 100 SW10      29.72S
$$

CITY           SKY/WX    TMP DP  RH WIND       PRES   REMARKS
GRAND FORKS    SUNNY     56  43  61 NE8       29.74S
GRAND FORKS AF SUNNY     55  44  66 NE5       29.72F
DEVILS LAKE    SUNNY     52  45  77 CALM      29.80R
FARGO          SUNNY     61  49  64 E10       29.72R
CANDO          SUNNY     52  52 100 E7        29.77R
GRAFTON        SUNNY     52  45  76 CALM      29.76F
GWINNER        SUNNY     59  59 100 E8        29.73R
LANGDON          N/A    N/A N/A N/A MISG        N/A
ROLLA          SUNNY     50  45  81 CALM      29.75S
WALHALLA       SUNNY     55  39  54 CALM      29.76S
$$

CITY           SKY/WX    TMP DP  RH WIND       PRES   REMARKS
ABERDEEN       SUNNY     60  54  80 NE6       29.71R
MOBRIDGE       CLOUDY    57  51  80 SW3       29.70R
BUFFALO          N/A     52  50  93 E3        29.74R
RAPID CITY     CLOUDY    52  47  83 N8        29.77R
GLASGOW        PTSUNNY   55  43  63 W13       29.71R
SIDNEY         CLOUDY    54  51  90 S9        29.72R
WOLF POINT     PTSUNNY   58  49  72 W6        29.71R
GLENDIVE       CLOUDY    53  51  93 SW6       29.75R
MILES CITY     PTSUNNY   55  49  80 W10       29.77R
BAKER          PTSUNNY   55  48  77 CALM      29.76R
$$

CITY           SKY/WX    TMP DP  RH WIND       PRES   REMARKS
BILLINGS       MOSUNNY   51  46  83 W8        29.86R
GREAT FALLS    MOSUNNY   50  32  50 SW24G32   29.81S
REGINA         MOSUNNY   52  39  62 SE16      29.69R
ESTEVAN        CLOUDY    45  43  93 E14       29.70
$$